Location: Csohesd
(46.2500°N, 22.6167°E)
Time: 21:42:12
(UTC+00:00)

SL-19 R/B - Pass Details

Date: 31 May 2022
Orbit: 874 x 1208 km, 100.6° (Epoch: 02 July)

Event Time Altitude Azimuth Distance (km) Brightness Sun altitude
Rises 19:44:26 0° 8° (N) 4,005 8.4 -12.4°
Reaches altitude 10° 19:47:44 10° 352° (N) 3,085 8.1 -12.8°
Maximum altitude 19:52:29 20° 310° (NW) 2,467 7.7 -13.3°
Drops below altitude 10° 19:57:19 10° 267° (W) 3,149 7.6 -13.8°
Sets 20:00:46 0° 252° (WSW) 4,115 8.0 -14.1°
